Call: 781-595-2000Contact Us
Lynn Police Dept - 300 Washington Street Lynn, Massachusetts 01902
  • Tel: 781-595-2000
  • Email: web1@lynnpolice.org

December 4, 2020

on January 4, 2021 in December 2020, Police Call Logs
Date/Time IncNum MC IncType Location
12/4/2020 0:32 20085174 1 OTHER SV 171 UNION ST
12/4/2020 1:01 20085177 1 UN GUEST 50 LYNNWAY #820
12/4/2020 1:07 20085178 1 ALARM CAL’S NEWS / 53 CENTRAL AVE
12/4/2020 1:13 20085179 1 NOISE 645 WESTERN AVE
12/4/2020 1:27 20085180 1 CK AREA 35 LYNNFIELD ST
12/4/2020 1:34 20085181 1 CK AREA PENNYBROOK RD
12/4/2020 1:33 20085182 1 CK AREA 33 BUCHANAN CIR
12/4/2020 1:40 20085183 1 DISTURB 22 LAWTON AVE #1
12/4/2020 1:53 20085185 1 CK AREA CURWIN CIR
12/4/2020 2:11 20085188 1 CK AREA CIRCUIT AVE
12/4/2020 2:09 20085189 1 CK AREA CLARK ST PLGD / 98 CLARK ST
12/4/2020 2:16 20085193 1 CK AREA EXCHANGE ST
12/4/2020 2:24 20085194 1 CK AREA 33 BUCHANAN CIR
12/4/2020 2:19 20085195 1 MEDICAL 50 LYNNWAY #820
12/4/2020 2:31 20085196 1 CK AREA CURWIN CIR
12/4/2020 2:34 20085198 1 DISTURB GREATER BETHLEHEM TEMPLE PENTECOSTA / 27 LIGHT ST
12/4/2020 2:53 20085200 1 CK AREA GREAT WOODS RD
12/4/2020 2:54 20085201 1 CK AREA BARRY PARK / 20 WATERFORD ST
12/4/2020 3:12 20085202 1 MEDICAL 10 ROCKMERE GDNS #1
12/4/2020 3:15 20085203 1 NOISE 3 KINGSLEY TER #7
12/4/2020 3:29 20085206 1 ALARM HONEY DEW DONUTS / 1067 WESTERN AVE
12/4/2020 3:33 20085207 1 MEDICAL 45 URBAN ST
12/4/2020 3:39 20085208 1 CK AREA 33 BUCHANAN CIR
12/4/2020 4:30 20085211 1 MEDICAL 59 HIGH ROCK ST
12/4/2020 5:18 20085214 1 TRESPASS 18 WESTERN AVE
12/4/2020 5:39 20085215 1 HAZ CONDITION CENTRAL SQ
12/4/2020 6:01 20085216 1 911 HANG 76 FRANKLIN ST
12/4/2020 6:07 20085217 1 DISTURB 50 LYNNWAY #820
12/4/2020 6:17 20085218 1 DISTURB 59 ELM ST FL 3
12/4/2020 6:26 20085219 1 MEDICAL 38 NEPTUNE ST FL 1
12/4/2020 7:06 20085222 1 SERVE PA 49 EADE ST
12/4/2020 7:16 20085225 1 SERVE PA 2 ROBINSON ST
12/4/2020 7:19 20085226 1 SERVE PA 498 ESSEX ST #107
12/4/2020 7:20 20085227 1 TRAFF ENF POST O’CALLAGHAN WAY
12/4/2020 7:25 20085228 1 SERVE PA 48 NORTHERN AVE
12/4/2020 7:27 20085229 1 CK AREA 50 GOODRIDGE ST
12/4/2020 7:28 20085231 1 MVA ACC ADAMS ST & CHESTNUT ST
12/4/2020 7:30 20085232 1 MVA ACC COMPARE SUPERMARKET / 2 ADAMS ST EXT
12/4/2020 7:35 20085233 1 SERVE PA 234 S COMMON ST #5
12/4/2020 7:35 20085234 1 SERVE PA 8 FORTESQUE TER #4
12/4/2020 7:42 20085235 1 SERVE PA 52 BAKER ST
12/4/2020 7:43 20085236 1 B&E MV PAST 377 MAPLE ST
12/4/2020 7:48 20085237 1 PR TRANS 300 WASHINGTON ST
12/4/2020 7:48 20085238 1 WELL BEING CHK 161 BROAD ST #3L
12/4/2020 7:59 20085239 1 OTHER D 142 WILLIAMS AVE #3
12/4/2020 8:16 20085240 1 DISTURB ENGLISH HIGH SCHOOL / 50 GOODRIDGE ST
12/4/2020 8:22 20085241 1 CK AREA ENGLISH HIGH / 50 GOODRIDGE ST
12/4/2020 8:29 20085242 1 CK AREA MBTA PARKING GARAGE / 186 MARKET ST
12/4/2020 8:48 20085243 1 911 HANG 2 CIRCLE AVE
12/4/2020 8:45 20085244 1 OTHER D 65 CENTRE ST #15
12/4/2020 9:02 20085246 1 ESCORT YMCA / 20 NEPTUNE BLVD
12/4/2020 9:16 20085247 1 911 HANG 95 PLEASANT ST
12/4/2020 9:26 20085249 1 MEDICAL 95 CURWIN CIR
12/4/2020 9:37 20085250 1 MEDICAL 526 CHESTNUT ST
12/4/2020 9:46 20085253 1 SERVE PA 37 ROCKAWAY ST #1
12/4/2020 9:50 20085254 1 SERVE PA 354 BROADWAY #15
12/4/2020 9:54 20085255 1 SERVE PA 63 SHERIDAN ST #2
12/4/2020 9:56 20085256 1 SERVE PA 50 SAVORY ST
12/4/2020 9:59 20085257 1 UNK PROB 65 CENTRE ST #15
12/4/2020 10:00 20085258 1 SERVE PA 12 TILTON PL #3
12/4/2020 10:05 20085259 1 SERVE PA 354 BROADWAY #15
12/4/2020 10:08 20085260 1 ALARM 191 N COMMON ST
12/4/2020 10:10 20085262 1 MEDICAL 24 FRANKLIN ST #1
12/4/2020 10:10 20085263 1 CK PER DUNKIN DONUTS / 364 LYNNWAY
12/4/2020 10:16 20085265 1 MEDICAL 24 FRANKLIN ST #1
12/4/2020 10:21 20085266 1 ASSAULT 1 MARKET ST
12/4/2020 10:23 20085267 1 SERVE PA 137 BROAD ST
12/4/2020 10:52 20085269 1 CK AREA 35 CEDAR ST
12/4/2020 11:27 20085271 1 SERVE PA 358 BROADWAY #1
12/4/2020 11:15 20085272 1 MEDICAL 63 WASHINGTON ST
12/4/2020 11:20 20085274 1 CK AREA CEDAR BROOK RD
12/4/2020 11:21 20085275 1 WELL BEING CHK 81 WASHINGTON ST #1
12/4/2020 11:24 20085276 1 INVEST 35 CEDAR ST
12/4/2020 11:31 20085277 1 ARREST 300 WASHINGTON ST
12/4/2020 11:32 20085278 1 DISTURB 4 KINGSLEY TER #5
12/4/2020 11:35 20085279 1 CK AREA FEDERAL ST
12/4/2020 11:40 20085281 1 MEDICAL PINE GROVE CEMETERY / 145 BOSTON ST FL SE SECTOR
12/4/2020 11:51 20085282 1 SERVE PA 25 HAMILTON AVE #3
12/4/2020 11:54 20085284 1 CK AREA MBTA PARKING GARAGE / 186 MARKET ST
12/4/2020 12:03 20085287 1 MVCONTRO BOSTON ST & WINNEPURKIT AVE
12/4/2020 12:15 20085288 1 CK AREA LYNN ENGLISH / 50 GOODRIDGE ST
12/4/2020 12:07 20085289 1 SERVE PA 8 JOYCE ST #14
12/4/2020 12:07 20085290 1 CK PER 13 COLLINS ST
12/4/2020 12:15 20085291 1 MEDICAL 160 NEPTUNE BLVD
12/4/2020 12:20 20085292 1 MV STOP 21 WINNEPURKIT AVE
12/4/2020 12:34 20085295 1 MV STOP 21 WINNEPURKIT AVE
12/4/2020 12:40 20085296 1 CK AREA CURWIN CIR
12/4/2020 12:39 20085297 1 FIRE ALL 10 WARD ST
12/4/2020 13:14 20085300 1 MVA ACC LYNNWAY & SHEPARD ST
12/4/2020 13:32 20085301 1 MVA ACC 16 UNION ST
12/4/2020 13:44 20085302 1 911 HANG 50 LYNNWAY
12/4/2020 13:45 20085303 1 MEDICAL 140 UNION ST #409
12/4/2020 13:48 20085304 1 MEDICAL 206 EASTERN AVE #1
12/4/2020 14:05 20085307 1 MEDICAL 300 LYNN SHORE DR #205
12/4/2020 14:12 20085308 1 INVEST FRANKLIN ST & HANOVER ST
12/4/2020 14:13 20085309 1 MEDICAL USPS MAIN POST OFFICE / 51 WILLOW ST
12/4/2020 14:15 20085310 1 ARREST 300 WASHINGTON ST
12/4/2020 14:17 20085311 1 MV PARK 1069 WESTERN AVE
12/4/2020 14:16 20085312 1 JUV PROB CHESTNUT ST
12/4/2020 14:18 20085313 1 911 HANG 11 SHIELA’S WAY
12/4/2020 14:23 20085314 1 MVA ACC 480 LYNNFIELD ST #PK LOT
12/4/2020 14:24 20085315 1 911 HANG 807 WESTERN AVE
12/4/2020 14:25 20085316 1 MEDICAL 248 KINGS HILL DR
12/4/2020 14:46 20085320 1 SERVE PA 234 S COMMON ST #5
12/4/2020 14:44 20085321 1 CON/SCAM 604 ESSEX ST
12/4/2020 14:49 20085324 1 WELL BEING CHK 7 CURWIN CIR
12/4/2020 15:17 20085328 1 911 HANG CVS PHARMACY / 65 BOSTON ST
12/4/2020 15:19 20085329 1 OVERDOSE 255 WESTERN AVE #1
12/4/2020 15:27 20085330 1 OVERDOSE 255 WESTERN AVE #1
12/4/2020 15:27 20085331 1 SUSPICIS GOODRIDGE ST & TRACY AVE
12/4/2020 15:29 20085332 1 CK PER AMES PLGD / 20 STRAWBERRY AVE
12/4/2020 15:30 20085333 1 911 HANG 95 PLEASANT ST
12/4/2020 15:37 20085334 1 WELL BEING CHK BOSTON ST
12/4/2020 15:39 20085335 1 CON/SCAM 127 WOODLAWN ST
12/4/2020 15:42 20085336 1 911 HANG 730 LYNNWAY
12/4/2020 15:51 20085337 1 SHOPLIFT FAMILY DOLLAR / 50 CENTRAL AVE
12/4/2020 15:56 20085339 1 ESCORT 555 ESSEX ST
12/4/2020 16:03 20085340 1 MEDICAL 18 ROCKAWAY CT
12/4/2020 16:10 20085341 1 MV STOP 648 BOSTON ST
12/4/2020 16:16 20085342 1 ERR OPERATOR 580 ESSEX ST
12/4/2020 16:37 20085344 1 MVA ACC BRIMBLECOM ST
12/4/2020 16:49 20085347 1 911 HANG 68 ROBINSON ST
12/4/2020 16:50 20085348 1 MVA ACC 4 CONGRESS ST
12/4/2020 16:57 20085349 1 DISTURB 153 FAIRMOUNT AVE
12/4/2020 16:59 20085350 1 HAZ CONDITION 407 WESTERN AVE #BSMNT
12/4/2020 16:59 20085351 1 UNK PROB 41 LIGHT ST #17
12/4/2020 17:10 20085353 1 UN GUEST 41 LIGHT ST
12/4/2020 17:33 20085354 1 OTHER SV 100 WILLOW ST #TABLE
12/4/2020 17:35 20085356 1 SERVE PA 65 WHITING ST #1R
12/4/2020 17:40 20085359 1 LARCENY ENJOY LIQUOR & FOOD MARKET / 53 UNION ST
12/4/2020 18:00 20085360 1 911 HANG 33 ELM ST #2
12/4/2020 18:00 20085361 1 MV THEFT 198 LOCUST ST
12/4/2020 18:09 20085362 1 ORD VIOL / 17 MARKET SQ
12/4/2020 18:32 20085363 1 MEDICAL 6 HURON ST
12/4/2020 18:44 20085365 1 OTHER SV 146 ALLEN AVE
12/4/2020 18:55 20085366 1 MEDICAL 6 OLIVE ST #210
12/4/2020 18:56 20085367 1 FIREWORKS 181 FAYETTE ST
12/4/2020 19:21 20085372 1 SERVE PA 65 WHITING ST #1R
12/4/2020 19:41 20085374 1 OTHER SV A L PRIME ENERGY / 969 WESTERN AVE
12/4/2020 19:40 20085375 1 SUSPICIS 32 HARWOOD ST
12/4/2020 19:50 20085376 1 ESCORT 312 UNION ST #206
12/4/2020 19:57 20085378 1 ALARM 251 WESTERN AVE
12/4/2020 20:03 20085380 1 LOCKOUT 17 CLINTON ST
12/4/2020 20:10 20085383 1 UN GUEST 103 LIBERTY ST #4
12/4/2020 20:10 20085384 1 ALARM 53 OCEAN ST
12/4/2020 20:21 20085385 1 MEDICAL 190 JENNESS ST
12/4/2020 20:23 20085386 1 ALARM MARKET BASKET / 40 FEDERAL ST
12/4/2020 20:37 20085389 1 MEDICAL SOCIAL SECURITY ADMINISTRATIO / 140 UNION ST #409
12/4/2020 20:40 20085390 1 DISTURB 408 BROADWAY #FRONT
12/4/2020 21:01 20085392 1 MEDICAL 248 KINGS HILL DR
12/4/2020 21:49 20085397 1 911 HANG 28 EUTAW AVE
12/4/2020 21:54 20085399 1 NOISE 44 BROOKVALE ST
12/4/2020 22:01 20085400 1 DISTURB WASHINGTON ST
12/4/2020 22:02 20085401 1 DISTURB STOP & SHOP SUPERMARKET #67 / 35 WASHINGTON ST
12/4/2020 22:03 20085402 1 MISS PER 103 JOHNSON ST
12/4/2020 22:04 20085403 1 MEDICAL 1 KINGSLEY TER #2
12/4/2020 22:05 20085404 1 DISTURB 301 ESSEX ST
12/4/2020 22:05 20085405 1 NEIGHBR PROBLEM 595 SUMMER ST #2
12/4/2020 22:07 20085406 1 CK PER WASHINGTON ST
12/4/2020 22:13 20085407 1 DISTURB SPEEDWAY GAS STATION / 120 LIBERTY ST
12/4/2020 22:10 20085408 1 DISTURB 16 SOUTH ST TER
12/4/2020 22:13 20085409 1 MEDICAL 130 NEPTUNE BLVD #1209
12/4/2020 22:05 20085410 1 MISS PER 103 JOHNSON ST
12/4/2020 22:14 20085411 1 NOISE 9 S ELM ST FL 2
12/4/2020 22:14 20085412 1 MISS PER 103 JOHNSON ST
12/4/2020 22:19 20085413 1 OTHER SV WASHINGTON ST
12/4/2020 22:23 20085414 1 ALARM WALGREENS / 21 JOYCE ST
12/4/2020 22:37 20085415 1 MV STOP GRAVES AVE
12/4/2020 22:44 20085416 1 DISTURB 111 LAWTON AVE
12/4/2020 22:44 20085417 1 DISTURB 1069R WESTERN AVE
12/4/2020 23:03 20085420 1 NOISE 18 HAMILTON AVE #5
12/4/2020 23:09 20085421 1 NOISE 409 CHESTNUT ST #3
12/4/2020 23:17 20085422 1 VANDAL MV 2 VICTORY RD #37
12/4/2020 23:27 20085425 1 MV PROB 767 SUMMER ST
12/4/2020 23:32 20085426 1 MEDICAL 51 KERNWOOD DR
12/4/2020 23:36 20085427 1 MV PARK 36 ROCKAWAY ST
12/4/2020 23:37 20085428 1 MEDICAL 14 ESSEX CIR #2
12/4/2020 23:59 20085429 1 NOISE 9 RHODES AVE #2
12/4/2020 23:59 20085430 1 MEDICAL 84 LAKE AVE

Police Call Logs

Top